This is the latest recevied weather packets stored in our database for station/object N7JP. If no packets are shown the sender has not sent any weather packets the latest 10 day(s).
| Time | Temp. | Humidity | Pressure | Rain* | Wind** | Luminosity | Snow |
|---|---|---|---|---|---|---|---|
| 1777651160 | 11.11° C | 90% | 1012.5 hPa | 0 mm | - | - | - |
| 1777650259 | 11.11° C | 90% | 1012.5 hPa | 0 mm | - | - | - |
| 1777649361 | 10.56° C | 90% | 1012.5 hPa | 0 mm | - | - | - |
| 1777648451 | 10° C | 89% | 1012.4 hPa | 0 mm | - | - | - |
| 1777647532 | 10° C | 89% | 1012.4 hPa | 0 mm | - | - | - |
| 1777646631 | 9.44° C | 89% | 1012.2 hPa | 0 mm | - | - | - |
| 1777645731 | 9.44° C | 90% | 1012.3 hPa | 0 mm | - | - | - |
| 1777644831 | 9.44° C | 90% | 1012.1 hPa | 0 mm | - | - | - |
| 1777643921 | 9.44° C | 91% | 1011.9 hPa | 0 mm | - | - | - |
| 1777643010 | 9.44° C | 90% | 1011.7 hPa | 0 mm | - | - | - |
| 1777642084 | 9.44° C | 90% | 1011.6 hPa | 0 mm | - | - | - |
| 1777641180 | 9.44° C | 90% | 1011.5 hPa | 0 mm | - | - | - |
| 1777640279 | 10° C | 90% | 1011.4 hPa | 0 mm | - | - | - |
| 1777639350 | 10° C | 82% | 1011.3 hPa | 0 mm | - | - | - |
| 1777638450 | 10° C | 81% | 1011.2 hPa | 0 mm | - | - | - |
| 1777637549 | 9.44° C | 85% | 1011.2 hPa | 0 mm | - | - | - |
| 1777636639 | 9.44° C | 86% | 1011.1 hPa | 0 mm | - | - | - |
| 1777635730 | 10° C | 87% | 1011.1 hPa | 0 mm | - | - | - |
| 1777634830 | 10° C | 87% | 1011.1 hPa | 0 mm | - | - | - |
| 1777633930 | 10° C | 87% | 1011.1 hPa | 0 mm | - | - | - |
| 1777633006 | 10° C | 87% | 1011 hPa | 0 mm | - | - | - |
| 1777632105 | 10.56° C | 87% | 1011.1 hPa | 0 mm | - | - | - |
| 1777631203 | 10.56° C | 86% | 1011.2 hPa | 0 mm | - | - | - |
| 1777630293 | 10.56° C | 84% | 1011.2 hPa | 0 mm | - | - | - |
| 1777629373 | 11.11° C | 83% | 1011.3 hPa | 0 mm | - | - | - |
* Rain latest hour (hover to see other rain measurements)
** Current wind speed in m/s (hover to see current wind gust speed)